User: anonymous   Login
Location: Unspecified
(0.0000°N, 0.0000°E)
Time: 12:36:28
(UTC+00:00)
Language:

GOES 4 - Orbit

View from above orbital plane
View from above orbital plane
View from above satellite
View from above satellite

Ground track
Ground track

The orbit data is extracted from the following two-line orbital elements,

1 11964U 80074A   18171.50221230 +.00000057 +00000-0 +00000-0 0  9995
2 11964 013.7270 330.8185 0034033 024.0240 156.1464 00.99227164098471
Epoch (UTC): 20 June 2018 12:03:11
Eccentricity: 0.0034033
inclination: 13.7270°
perigee height: 35937 km
apogee height: 36226 km
right ascension of ascending node: 330.8185°
argument of perigee: 24.0240°
revolutions per day: 0.99227164
mean anomaly at epoch: 156.1464°
orbit number at epoch: 9847

The dashed part of the orbit path shows where the satellite is in the earth's shadow,  

DLR